Weather History for Rhodes, Greece

Change the Weather History Date:

Sunday, January 6, 2013

  Actual Average Record
Temperature  
Mean Temperature 54 °F -  
Max Temperature 57 °F 59 °F 66 °F (1997)
Min Temperature 51 °F 47 °F 39 °F (2002)
Degree Days  
Heating Degree Days 11    
Growing Degree Days 4 (Base 50)    
Moisture  
Dew Point 44 °F    
Average Humidity 69    
Maximum Humidity 88    
Minimum Humidity 47    
Precipitation  
Precipitation 0.01 in 0.19 in - ()
Sea Level Pressure  
Sea Level Pressure 29.63 in    
Wind  
Wind Speed 9 mph ()    
Max Wind Speed 20 mph    
Max Gust Speed -    
Visibility 6.2 miles    
Events Rain    
Averages and records for this station are not official NWS values.
T = Trace of Precipitation, MM = Missing Value Source: Averaged Metar Reports

Daily Weather History Graph

Daily Weather History Graph

Search for Another Location

Airport:

Trip Planner

Search our weather history database for the weather conditions in past years. The results will help you decide how hot, cold, wet, or windy it might be!

Date:

Astronomy

Jan. 06, 2013 Rise Set
Actual Time 7:19 AM EET 5:07 PM EET
Civil Twilight 6:51 AM EET 5:35 PM EET
Nautical Twilight 6:19 AM EET 6:07 PM EET
Astronomical Twilight 5:48 AM EET 6:39 PM EET
Moon 1:16 AM EET (1/6) 12:18 PM EET (1/6)
Length of Visible Light 10h 44m
Length of Day
9h 47m
Last Quarter, 36% of the Moon is Illuminated
Jan 6
Last Quarter
Jan 11
New
Jan 19
First Quarter
Jan 27
Full
Feb 3
Last Quarter

Hourly Weather History & Observations

Time (EET) Temp. Dew Point Humidity Pressure Visibility Wind Dir Wind Speed Gust Speed Precip Events Conditions
12:20 AM 55.4 °F 41.0 °F 58% 29.74 in 6.2 mi WNW 9.2 mph - N/A   Mostly Cloudy
12:50 AM 55.4 °F 41.0 °F 58% 29.71 in 6.2 mi WNW 9.2 mph - N/A   Mostly Cloudy
1:20 AM 55.4 °F 41.0 °F 58% 29.71 in 6.2 mi NW 11.5 mph - N/A   Mostly Cloudy
1:50 AM 55.4 °F 41.0 °F 58% 29.71 in 6.2 mi NW 11.5 mph - N/A   Mostly Cloudy
2:00 AM 55 °F 41 °F 47% 29.73 in 6 mi NW 11.5 mph - -   Scattered Clouds
2:20 AM 55.4 °F 41.0 °F 58% 29.71 in 6.2 mi WNW 11.5 mph - N/A   Mostly Cloudy
2:50 AM 53.6 °F 41.0 °F 62% 29.71 in 6.2 mi WNW 11.5 mph - N/A   Mostly Cloudy
3:20 AM 53.6 °F 41.0 °F 62% 29.71 in 6.2 mi WNW 11.5 mph - N/A   Mostly Cloudy
3:50 AM 53.6 °F 39.2 °F 58% 29.68 in 6.2 mi WNW 11.5 mph - N/A   Mostly Cloudy
4:20 AM 53.6 °F 39.2 °F 58% 29.68 in 6.2 mi WNW 11.5 mph - N/A   Mostly Cloudy
4:50 AM 53.6 °F 41.0 °F 62% 29.65 in 6.2 mi NW 10.4 mph - N/A   Mostly Cloudy
5:20 AM 53.6 °F 41.0 °F 62% 29.65 in 6.2 mi NW 10.4 mph - N/A   Mostly Cloudy
5:50 AM 53.6 °F 41.0 °F 62% 29.65 in 6.2 mi WNW 9.2 mph - N/A   Mostly Cloudy
6:20 AM 53.6 °F 41.0 °F 62% 29.65 in 6.2 mi WNW 8.1 mph - N/A   Mostly Cloudy
6:50 AM 53.6 °F 39.2 °F 58% 29.65 in 6.2 mi West 10.4 mph - N/A   Scattered Clouds
7:20 AM 53.6 °F 39.2 °F 58% 29.65 in 6.2 mi WNW 9.2 mph - N/A   Scattered Clouds
7:50 AM 53.6 °F 39.2 °F 58% 29.68 in 6.2 mi WNW 8.1 mph - N/A   Scattered Clouds
8:00 AM 53 °F 39 °F 47% 29.68 in 6 mi WNW 8.1 mph - -   Scattered Clouds
8:20 AM 53.6 °F 39.2 °F 58% 29.68 in 6.2 mi WNW 8.1 mph - N/A   Scattered Clouds
8:50 AM 53.6 °F 35.6 °F 51% 29.65 in 6.2 mi Variable 3.5 mph - N/A   Scattered Clouds
9:20 AM 57.2 °F 39.2 °F 51% 29.65 in 6.2 mi Variable 2.3 mph - N/A   Scattered Clouds
9:50 AM 57.2 °F 39.2 °F 51% 29.68 in 6.2 mi WSW 4.6 mph - N/A   Scattered Clouds
10:20 AM 57.2 °F 39.2 °F 51% 29.68 in 6.2 mi West 5.8 mph - N/A   Scattered Clouds
10:50 AM 57.2 °F 42.8 °F 59% 29.68 in 6.2 mi WSW 5.8 mph - N/A   Scattered Clouds
11:20 AM 57.2 °F 42.8 °F 59% 29.68 in 6.2 mi West 5.8 mph - N/A   Scattered Clouds
11:50 AM 57.2 °F 41.0 °F 55% 29.62 in 6.2 mi West 6.9 mph - N/A   Scattered Clouds
12:20 PM 57.2 °F 41.0 °F 55% 29.62 in 6.2 mi West 6.9 mph - N/A   Mostly Cloudy
12:50 PM 55.4 °F 48.2 °F 77% 29.62 in 6.2 mi West 13.8 mph - N/A   Mostly Cloudy
1:20 PM 55.4 °F 48.2 °F 77% 29.62 in 6.2 mi West 13.8 mph - N/A Rain Light Rain
1:50 PM 51.8 °F 48.2 °F 88% 29.59 in 6.2 mi South 6.9 mph - N/A   Mostly Cloudy
2:00 PM 52 °F 48 °F 81% 29.60 in 6 mi South 6.9 mph - - Rain Light Rain
2:20 PM 51.8 °F 48.2 °F 88% 29.59 in 6.2 mi SW 6.9 mph - N/A   Mostly Cloudy
2:50 PM 53.6 °F 50.0 °F 88% 29.56 in 6.2 mi SW 6.9 mph - N/A   Mostly Cloudy
3:20 PM 53.6 °F 50.0 °F 88% 29.56 in 6.2 mi SW 6.9 mph - N/A   Mostly Cloudy
3:50 PM 53.6 °F 50.0 °F 88% 29.56 in 6.2 mi WSW 5.8 mph - N/A   Mostly Cloudy
4:20 PM 53.6 °F 50.0 °F 88% 29.56 in 6.2 mi West 6.9 mph - N/A   Mostly Cloudy
4:50 PM 53.6 °F 48.2 °F 82% 29.56 in 6.2 mi West 6.9 mph - N/A   Mostly Cloudy
5:20 PM 53.6 °F 48.2 °F 82% 29.56 in 6.2 mi West 6.9 mph - N/A   Mostly Cloudy
5:50 PM 53.6 °F 46.4 °F 77% 29.53 in 6.2 mi WNW 10.4 mph - N/A   Mostly Cloudy
6:20 PM 53.6 °F 46.4 °F 77% 29.53 in 6.2 mi WNW 10.4 mph - N/A   Mostly Cloudy
6:50 PM 53.6 °F 46.4 °F 77% 29.56 in 6.2 mi WNW 11.5 mph - N/A   Mostly Cloudy
7:20 PM 53.6 °F 46.4 °F 77% 29.56 in 6.2 mi WNW 11.5 mph - N/A   Mostly Cloudy
7:50 PM 53.6 °F 48.2 °F 82% 29.56 in 6.2 mi WNW 11.5 mph - N/A   Mostly Cloudy
8:00 PM 53 °F 49 °F 81% 29.57 in 6 mi WNW 11.5 mph - -   Overcast
8:20 PM 53.6 °F 48.2 °F 82% 29.56 in 6.2 mi WNW 13.8 mph - N/A   Mostly Cloudy
8:50 PM 53.6 °F 46.4 °F 77% 29.56 in 6.2 mi WNW 16.1 mph - N/A   Mostly Cloudy
9:20 PM 53.6 °F 46.4 °F 77% 29.56 in 6.2 mi WNW 16.1 mph - N/A   Mostly Cloudy
9:50 PM 51.8 °F 48.2 °F 88% 29.56 in 6.2 mi WNW 18.4 mph - N/A   Mostly Cloudy
10:20 PM 51.8 °F 48.2 °F 88% 29.56 in 6.2 mi WNW 18.4 mph - N/A   Mostly Cloudy
10:50 PM 51.8 °F 48.2 °F 88% 29.59 in 6.2 mi West 19.6 mph - N/A   Mostly Cloudy
11:20 PM 51.8 °F 48.2 °F 88% 29.59 in 6.2 mi West 19.6 mph - N/A   Mostly Cloudy
11:50 PM 51.8 °F 44.6 °F 76% 29.59 in 6.2 mi WNW 19.6 mph - N/A   Mostly Cloudy